Simultaneous Nadir Overpasses (SNOs) Predictions

Prediction of SNOs between AURA and NPP Satellite Orbit:

Table of predicted SNOs for the next 14.0 days since TLE Epoch: 9/25/2015
Index Date (AURA) Time (AURA) Lat,Lon (AURA) SZA (AURA ) Date (NPP) Time (NPP) Lat,Lon (NPP) SZA (NPP ) Distance(km) Time Diff (sec)
1 09/27/2015 08:56:59 78.60, -62.92 94.77 09/27/2015 08:55:50 78.59, -62.98 94.84 1.48 69
2 09/27/2015 09:46:16 -79.02, 107.08 85.77 09/27/2015 09:46:24 -79.01, 107.03 85.76 1.21 8
3 09/30/2015 01:13:21 78.80, 54.06 95.49 09/30/2015 01:12:35 78.80, 54.06 95.53 0.21 46
4 09/30/2015 02:02:39 -79.17,-136.10 84.99 09/30/2015 02:03:10 -79.17,-136.08 85.02 0.55 31
5 10/02/2015 17:29:46 78.86, 170.28 96.40 10/02/2015 17:29:21 78.85, 170.20 96.43 1.86 25
6 10/02/2015
